Time,TemperatureF,DewpointF,PressureIn,WindDirection,WindDirectionDegrees,WindSpeedMPH,WindSpeedGustMPH,Humidity,HourlyPrecipIn,Conditions,Clouds,dailyrainin,SoftwareType,DateUTC
2013-08-28 07:15:00,61.5,57.9,29.69,NNE,23,0.0,0.0,88,0.00,,,0.00,WUHU216HW,2013-08-28 05:15:00,
2013-08-28 07:16:00,61.5,57.9,29.69,NNE,23,0.0,0.0,88,0.00,,,0.00,WUHU216HW,2013-08-28 05:16:00,
2013-08-28 07:17:00,61.5,57.9,29.69,North,0,0.0,0.0,88,0.00,,,0.00,WUHU216HW,2013-08-28 05:17:00,
2013-08-28 07:22:00,62.0,58.6,29.69,ESE,113,0.0,0.0,88,0.00,,,0.00,WUHU216HW,2013-08-28 05:22:00,
2013-08-28 07:27:00,62.7,59.2,29.69,SSE,158,0.0,0.0,88,0.00,,,0.00,WUHU216HW,2013-08-28 05:27:00,
2013-08-28 07:32:00,63.1,59.2,29.69,ENE,68,0.0,0.0,87,0.00,,,0.00,WUHU216HW,2013-08-28 05:32:00,
2013-08-28 07:37:00,63.3,59.4,29.69,ENE,68,0.0,0.0,87,0.00,,,0.00,WUHU216HW,2013-08-28 05:37:00,
2013-08-28 07:42:00,63.5,59.2,29.69,SE,135,0.0,0.0,86,0.00,,,0.00,WUHU216HW,2013-08-28 05:42:00,
2013-08-28 07:47:00,63.6,59.4,29.70,NNE,23,0.0,0.0,86,0.00,,,0.00,WUHU216HW,2013-08-28 05:47:00,
2013-08-28 07:52:00,63.3,58.7,29.71,East,90,0.0,0.0,85,0.00,,,0.00,WUHU216HW,2013-08-28 05:52:00,
2013-08-28 07:57:00,63.3,58.7,29.71,NE,45,0.0,0.0,85,0.00,,,0.00,WUHU216HW,2013-08-28 05:57:00,
2013-08-28 08:02:00,63.1,58.2,29.71,North,0,0.0,0.0,84,0.00,,,0.00,WUHU216HW,2013-08-28 06:02:00,
2013-08-28 08:07:00,62.7,57.8,29.72,ESE,113,0.0,0.0,84,0.00,,,0.00,WUHU216HW,2013-08-28 06:07:00,
2013-08-28 08:12:00,62.6,57.6,29.72,SSE,158,0.0,0.0,84,0.00,,,0.00,WUHU216HW,2013-08-28 06:12:00,
2013-08-28 08:17:00,62.4,57.4,29.71,SSE,158,0.0,0.0,84,0.00,,,0.00,WUHU216HW,2013-08-28 06:17:00,
2013-08-28 08:22:00,62.4,57.4,29.72,SSE,158,0.0,0.0,84,0.00,,,0.00,WUHU216HW,2013-08-28 06:22:00,
2013-08-28 08:27:00,62.0,57.4,29.72,SSE,158,0.0,0.0,85,0.00,,,0.00,WUHU216HW,2013-08-28 06:27:00,
2013-08-28 08:32:00,61.8,57.3,29.73,ESE,113,0.0,0.0,85,0.00,,,0.00,WUHU216HW,2013-08-28 06:32:00,
2013-08-28 08:37:00,61.8,57.6,29.72,NNW,338,0.0,0.0,86,0.00,,,0.00,WUHU216HW,2013-08-28 06:37:00,
2013-08-28 08:42:00,61.5,57.3,29.72,NE,45,0.0,0.0,86,0.02,,,0.02,WUHU216HW,2013-08-28 06:42:00,
2013-08-28 08:47:00,61.3,57.1,29.71,North,0,0.0,0.0,86,0.02,,,0.02,WUHU216HW,2013-08-28 06:47:00,
2013-08-28 08:52:00,61.1,57.2,29.72,NW,315,0.0,0.0,87,0.02,,,0.02,WUHU216HW,2013-08-28 06:52:00,
2013-08-28 08:57:00,60.9,57.1,29.72,NNW,338,0.0,1.1,87,0.02,,,0.02,WUHU216HW,2013-08-28 06:57:00,
2013-08-28 09:02:00,60.6,57.2,29.71,NW,315,0.0,1.1,88,0.02,,,0.02,WUHU216HW,2013-08-28 07:02:00,
2013-08-28 09:07:00,60.6,57.0,29.71,NNW,338,0.0,0.0,88,0.04,,,0.04,WUHU216HW,2013-08-28 07:07:00,
2013-08-28 09:12:00,60.4,56.5,29.72,North,0,0.0,0.6,87,0.04,,,0.04,WUHU216HW,2013-08-28 07:12:00,
2013-08-28 09:17:00,60.4,56.9,29.72,NNW,338,0.0,0.6,88,0.04,,,0.04,WUHU216HW,2013-08-28 07:17:00,
2013-08-28 09:22:00,60.0,56.5,29.73,WSW,248,0.0,0.0,88,0.06,,,0.06,WUHU216HW,2013-08-28 07:22:00,
2013-08-28 09:27:00,60.0,56.6,29.75,ESE,113,0.0,4.4,89,0.08,,,0.08,WUHU216HW,2013-08-28 07:27:00,
2013-08-28 09:32:00,59.7,56.5,29.75,West,270,0.0,8.9,89,0.14,,,0.10,WUHU216HW,2013-08-28 07:32:00,
2013-08-28 09:37:00,59.5,56.5,29.75,SE,135,0.0,8.9,89,0.18,,,0.20,WUHU216HW,2013-08-28 07:37:00,
2013-08-28 09:42:00,59.5,56.3,29.74,NNE,23,0.0,0.6,89,0.24,,,0.26,WUHU216HW,2013-08-28 07:42:00,
2013-08-28 09:50:00,59.3,56.1,29.73,NNW,338,2.9,2.9,89,0.39,,,0.34,WUHU216HW,2013-08-28 07:50:00,
2013-08-28 09:55:00,59.1,56.3,29.73,WNW,293,1.5,2.9,90,0.41,,,0.43,WUHU216HW,2013-08-28 07:55:00,
2013-08-28 10:00:00,59.1,56.3,29.72,NE,45,0.0,1.5,90,0.41,,,0.43,WUHU216HW,2013-08-28 08:00:00,
2013-08-28 10:05:00,59.1,56.3,29.71,NNW,338,0.0,0.8,90,0.41,,,0.45,WUHU216HW,2013-08-28 08:05:00,
2013-08-28 10:10:00,59.0,56.1,29.71,NNE,23,0.0,1.1,90,0.41,,,0.45,WUHU216HW,2013-08-28 08:10:00,
2013-08-28 10:15:00,58.8,55.6,29.71,NNW,338,0.0,1.1,89,0.43,,,0.47,WUHU216HW,2013-08-28 08:15:00,
2013-08-28 10:20:00,58.8,55.6,29.71,NNW,338,0.0,0.0,89,0.41,,,0.47,WUHU216HW,2013-08-28 08:20:00,
2013-08-28 10:25:00,58.8,55.6,29.72,SSE,158,0.0,0.0,89,0.39,,,0.49,WUHU216HW,2013-08-28 08:25:00,
2013-08-28 10:31:00,58.8,55.9,29.72,WSW,248,0.0,0.0,90,0.37,,,0.49,WUHU216HW,2013-08-28 08:31:00,
2013-08-28 10:36:00,58.8,55.9,29.72,West,270,0.0,0.0,90,0.30,,,0.51,WUHU216HW,2013-08-28 08:36:00,
2013-08-28 10:41:00,58.8,56.1,29.71,SE,135,0.0,0.0,90,0.18,,,0.51,WUHU216HW,2013-08-28 08:41:00,
2013-08-28 10:46:00,59.1,56.3,29.71,SE,135,0.0,0.0,90,0.14,,,0.53,WUHU216HW,2013-08-28 08:46:00,
2013-08-28 10:51:00,59.5,56.6,29.71,WNW,293,0.0,0.0,90,0.10,,,0.53,WUHU216HW,2013-08-28 08:51:00,
2013-08-28 10:58:00,60.0,57.2,29.72,South,180,0.0,0.0,90,0.10,,,0.53,WUHU216HW,2013-08-28 08:58:00,
2013-08-28 11:03:00,60.6,57.7,29.71,ESE,113,0.0,0.0,90,0.08,,,0.53,WUHU216HW,2013-08-28 09:03:00,
2013-08-28 11:08:00,60.9,58.1,29.70,ENE,68,0.0,0.0,90,0.08,,,0.53,WUHU216HW,2013-08-28 09:08:00,
2013-08-28 11:13:00,61.1,58.2,29.70,ENE,68,0.0,0.0,90,0.06,,,0.53,WUHU216HW,2013-08-28 09:13:00,
2013-08-28 11:18:00,61.3,58.4,29.70,NE,45,1.5,1.5,90,0.06,,,0.53,WUHU216HW,2013-08-28 09:18:00,
2013-08-28 11:23:00,60.9,58.1,29.71,NNW,338,0.8,1.5,90,0.04,,,0.53,WUHU216HW,2013-08-28 09:23:00,
2013-08-28 11:28:00,60.6,57.7,29.71,ENE,68,0.0,1.5,90,0.02,,,0.53,WUHU216HW,2013-08-28 09:28:00,
2013-08-28 11:33:00,60.6,57.7,29.71,NNE,23,0.0,1.5,90,0.02,,,0.53,WUHU216HW,2013-08-28 09:33:00,
2013-08-28 11:38:00,60.6,57.7,29.71,East,90,0.0,0.6,90,0.00,,,0.53,WUHU216HW,2013-08-28 09:38:00,
2013-08-28 11:43:00,61.3,58.4,29.71,NE,45,0.0,0.0,90,0.00,,,0.53,WUHU216HW,2013-08-28 09:43:00,
2013-08-28 11:48:00,61.5,58.6,29.71,NNE,23,0.0,0.0,90,0.00,,,0.53,WUHU216HW,2013-08-28 09:48:00,
2013-08-28 11:53:00,61.7,58.6,29.71,NNW,338,4.2,4.2,90,0.00,,,0.53,WUHU216HW,2013-08-28 09:53:00,
2013-08-28 11:58:00,62.0,59.1,29.71,NNE,23,0.0,4.2,90,0.00,,,0.53,WUHU216HW,2013-08-28 09:58:00,
2013-08-28 12:03:00,62.4,59.3,29.71,NE,45,4.0,4.4,90,0.00,,,0.53,WUHU216HW,2013-08-28 10:03:00,
2013-08-28 12:08:00,64.2,61.3,29.71,NE,45,0.0,4.4,90,0.00,,,0.53,WUHU216HW,2013-08-28 10:08:00,
2013-08-28 12:13:00,65.1,62.1,29.71,North,0,0.8,4.0,90,0.00,,,0.53,WUHU216HW,2013-08-28 10:13:00,
2013-08-28 12:18:00,64.9,62.0,29.71,North,0,0.0,0.8,90,0.00,,,0.53,WUHU216HW,2013-08-28 10:18:00,
2013-08-28 12:23:00,64.9,62.0,29.71,NE,45,0.0,1.5,90,0.00,,,0.53,WUHU216HW,2013-08-28 10:23:00,
2013-08-28 12:28:00,65.6,62.6,29.71,ENE,68,2.2,3.5,90,0.00,,,0.53,WUHU216HW,2013-08-28 10:28:00,
2013-08-28 12:33:00,66.3,62.9,29.71,East,90,0.0,3.5,89,0.00,,,0.53,WUHU216HW,2013-08-28 10:33:00,
2013-08-28 12:38:00,66.0,62.6,29.71,ENE,68,0.0,2.6,89,0.00,,,0.53,WUHU216HW,2013-08-28 10:38:00,
2013-08-28 12:48:00,67.4,63.9,29.71,ENE,68,0.8,0.8,88,0.00,,,0.53,WUHU216HW,2013-08-28 10:48:00,
2013-08-28 12:53:00,68.1,64.1,29.71,East,90,0.0,3.5,87,0.00,,,0.53,WUHU216HW,2013-08-28 10:53:00,
2013-08-28 12:58:00,68.7,64.6,29.71,NE,45,0.0,3.5,87,0.00,,,0.53,WUHU216HW,2013-08-28 10:58:00,
2013-08-28 13:03:00,68.3,63.6,29.71,ESE,113,0.0,4.9,85,0.00,,,0.53,WUHU216HW,2013-08-28 11:03:00,
2013-08-28 13:08:00,69.0,64.6,29.71,South,180,0.0,4.9,86,0.00,,,0.53,WUHU216HW,2013-08-28 11:08:00,
2013-08-28 13:13:00,69.6,64.8,29.71,East,90,0.8,5.3,85,0.00,,,0.53,WUHU216HW,2013-08-28 11:13:00,
2013-08-28 13:18:00,68.3,63.3,29.71,North,0,0.0,5.3,84,0.00,,,0.53,WUHU216HW,2013-08-28 11:18:00,
2013-08-28 13:23:00,68.3,63.6,29.71,SE,135,0.0,3.8,85,0.00,,,0.53,WUHU216HW,2013-08-28 11:23:00,
2013-08-28 13:28:00,69.4,64.6,29.72,SSE,158,2.4,2.4,85,0.00,,,0.53,WUHU216HW,2013-08-28 11:28:00,
2013-08-28 13:33:00,70.3,65.2,29.72,SE,135,0.0,2.9,84,0.00,,,0.53,WUHU216HW,2013-08-28 11:33:00,
2013-08-28 13:38:00,70.5,65.0,29.72,ESE,113,2.9,2.9,83,0.00,,,0.53,WUHU216HW,2013-08-28 11:38:00,
2013-08-28 13:44:00,71.0,65.6,29.72,North,0,0.0,4.0,83,0.00,,,0.53,WUHU216HW,2013-08-28 11:44:00,
2013-08-28 13:49:00,71.4,65.9,29.72,SSE,158,2.2,4.0,83,0.00,,,0.53,WUHU216HW,2013-08-28 11:49:00,
2013-08-28 13:54:00,71.4,65.2,29.72,SW,225,0.0,3.5,81,0.00,,,0.53,WUHU216HW,2013-08-28 11:54:00,
2013-08-28 13:59:00,71.7,65.6,29.73,South,180,5.3,5.3,81,0.00,,,0.53,WUHU216HW,2013-08-28 11:59:00,
2013-08-28 14:04:00,71.2,64.3,29.73,East,90,4.0,5.3,79,0.00,,,0.53,WUHU216HW,2013-08-28 12:04:00,
2013-08-28 14:09:00,71.2,64.3,29.73,ESE,113,0.8,4.6,79,0.00,,,0.53,WUHU216HW,2013-08-28 12:09:00,
2013-08-28 14:14:00,71.4,64.9,29.73,SE,135,0.0,4.6,80,0.00,,,0.53,WUHU216HW,2013-08-28 12:14:00,
2013-08-28 14:19:00,70.1,63.3,29.73,SE,135,1.3,2.4,79,0.00,,,0.53,WUHU216HW,2013-08-28 12:19:00,
2013-08-28 14:24:00,70.5,63.8,29.73,SSE,158,0.0,2.4,80,0.00,,,0.53,WUHU216HW,2013-08-28 12:24:00,
2013-08-28 14:29:00,70.8,63.6,29.73,NE,45,0.0,1.3,78,0.00,,,0.53,WUHU216HW,2013-08-28 12:29:00,
2013-08-28 14:34:00,71.2,64.1,29.73,SSE,158,3.5,3.5,78,0.00,,,0.53,WUHU216HW,2013-08-28 12:34:00,
2013-08-28 14:46:00,71.7,64.1,29.73,North,0,0.0,5.1,77,0.00,,,0.53,WUHU216HW,2013-08-28 12:46:00,
2013-08-28 14:51:00,71.7,64.5,29.73,ESE,113,0.0,6.2,78,0.00,,,0.53,WUHU216HW,2013-08-28 12:51:00,
2013-08-28 14:56:00,71.2,63.4,29.73,East,90,0.0,4.0,77,0.00,,,0.53,WUHU216HW,2013-08-28 12:56:00,
2013-08-28 15:01:00,69.9,62.3,29.73,NNW,338,0.0,1.5,76,0.00,,,0.53,WUHU216HW,2013-08-28 13:01:00,
2013-08-28 15:06:00,69.6,62.0,29.73,North,0,0.0,1.5,77,0.00,,,0.53,WUHU216HW,2013-08-28 13:06:00,
2013-08-28 15:11:00,69.0,61.5,29.73,North,0,2.0,2.0,77,0.00,,,0.53,WUHU216HW,2013-08-28 13:11:00,
2013-08-28 15:16:00,68.3,61.6,29.73,North,0,7.6,7.6,79,0.00,,,0.53,WUHU216HW,2013-08-28 13:16:00,
2013-08-28 15:21:00,67.6,61.3,29.72,North,0,1.7,7.6,80,0.00,,,0.53,WUHU216HW,2013-08-28 13:21:00,
2013-08-28 15:26:00,67.4,61.4,29.72,NNW,338,3.5,7.6,81,0.00,,,0.53,WUHU216HW,2013-08-28 13:26:00,
2013-08-28 15:31:00,66.9,61.1,29.72,NNW,338,5.5,5.5,81,0.00,,,0.53,WUHU216HW,2013-08-28 13:31:00,
2013-08-28 15:37:00,66.9,61.2,29.72,NNW,338,4.0,5.5,82,0.00,,,0.53,WUHU216HW,2013-08-28 13:37:00,
2013-08-28 15:42:00,67.1,61.1,29.72,NNW,338,1.7,4.0,81,0.00,,,0.53,WUHU216HW,2013-08-28 13:42:00,
2013-08-28 15:47:00,67.2,61.3,29.72,North,0,0.0,1.7,81,0.00,,,0.53,WUHU216HW,2013-08-28 13:47:00,
2013-08-28 15:52:00,67.2,61.3,29.72,NNW,338,1.5,1.5,81,0.00,,,0.53,WUHU216HW,2013-08-28 13:52:00,
2013-08-28 15:57:00,67.6,61.6,29.72,NNW,338,3.1,3.1,81,0.00,,,0.53,WUHU216HW,2013-08-28 13:57:00,
2013-08-28 16:05:00,67.6,61.6,29.72,WNW,293,3.5,5.1,81,0.00,,,0.53,WUHU216HW,2013-08-28 14:05:00,
2013-08-28 16:10:00,67.8,61.5,29.72,WNW,293,0.0,3.5,80,0.00,,,0.53,WUHU216HW,2013-08-28 14:10:00,
2013-08-28 16:16:00,68.0,61.7,29.72,NW,315,0.0,1.7,80,0.00,,,0.53,WUHU216HW,2013-08-28 14:16:00,
2013-08-28 16:21:00,68.3,62.0,29.72,NNE,23,0.0,1.7,80,0.00,,,0.53,WUHU216HW,2013-08-28 14:21:00,
2013-08-28 16:29:00,68.9,62.1,29.72,WNW,293,2.2,2.2,79,0.00,,,0.53,WUHU216HW,2013-08-28 14:29:00,
2013-08-28 16:34:00,69.2,62.0,29.72,SE,135,0.0,2.2,78,0.00,,,0.53,WUHU216HW,2013-08-28 14:34:00,
2013-08-28 16:39:00,69.2,61.7,29.71,North,0,3.5,3.5,77,0.00,,,0.53,WUHU216HW,2013-08-28 14:39:00,
2013-08-28 16:44:00,68.9,61.7,29.72,NNW,338,0.0,5.5,78,0.00,,,0.53,WUHU216HW,2013-08-28 14:44:00,
2013-08-28 16:53:00,68.5,61.8,29.71,NNE,23,0.0,4.2,79,0.00,,,0.53,WUHU216HW,2013-08-28 14:53:00,
2013-08-28 17:00:00,68.5,61.8,29.71,West,270,0.0,0.0,79,0.00,,,0.53,WUHU216HW,2013-08-28 15:00:00,
2013-08-28 17:05:00,68.5,61.8,29.72,NNE,23,0.0,2.9,79,0.00,,,0.53,WUHU216HW,2013-08-28 15:05:00,
2013-08-28 17:10:00,68.5,61.8,29.71,North,0,4.6,4.6,79,0.00,,,0.53,WUHU216HW,2013-08-28 15:10:00,
2013-08-28 17:15:00,68.5,61.4,29.71,NE,45,0.0,4.6,78,0.00,,,0.53,WUHU216HW,2013-08-28 15:15:00,
2013-08-28 17:20:00,68.3,61.2,29.72,NNW,338,3.1,4.0,78,0.00,,,0.53,WUHU216HW,2013-08-28 15:20:00,
2013-08-28 17:25:00,68.1,61.1,29.72,NNW,338,2.2,3.1,78,0.00,,,0.53,WUHU216HW,2013-08-28 15:25:00,
2013-08-28 17:30:00,67.8,60.7,29.73,NNW,338,1.3,4.2,78,0.00,,,0.53,WUHU216HW,2013-08-28 15:30:00,
2013-08-28 17:35:00,67.4,60.4,29.73,NNW,338,1.3,4.2,78,0.00,,,0.53,WUHU216HW,2013-08-28 15:35:00,
2013-08-28 17:40:00,67.2,60.6,29.73,NNW,338,0.0,2.9,79,0.00,,,0.53,WUHU216HW,2013-08-28 15:40:00,
2013-08-28 17:45:00,66.9,60.2,29.73,WNW,293,0.8,3.8,79,0.00,,,0.53,WUHU216HW,2013-08-28 15:45:00,
2013-08-28 17:50:00,66.9,60.6,29.73,NW,315,0.0,3.8,80,0.00,,,0.53,WUHU216HW,2013-08-28 15:50:00,
2013-08-28 17:55:00,66.7,60.4,29.73,NW,315,0.0,3.8,80,0.00,,,0.53,WUHU216HW,2013-08-28 15:55:00,
2013-08-28 18:00:00,66.7,60.4,29.73,NNW,338,1.3,2.0,80,0.00,,,0.53,WUHU216HW,2013-08-28 16:00:00,
2013-08-28 18:05:00,66.7,60.4,29.74,NNW,338,0.0,2.0,80,0.00,,,0.53,WUHU216HW,2013-08-28 16:05:00,
2013-08-28 18:11:00,66.9,60.6,29.73,North,0,0.0,0.8,80,0.00,,,0.53,WUHU216HW,2013-08-28 16:11:00,
2013-08-28 18:16:00,67.1,60.8,29.73,North,0,0.0,0.8,80,0.00,,,0.53,WUHU216HW,2013-08-28 16:16:00,
2013-08-28 18:24:00,66.9,60.6,29.73,NW,315,0.0,0.0,80,0.00,,,0.53,WUHU216HW,2013-08-28 16:24:00,
2013-08-28 18:29:00,67.1,60.8,29.73,NNW,338,0.0,0.0,80,0.00,,,0.53,WUHU216HW,2013-08-28 16:29:00,
2013-08-28 18:34:00,66.9,60.6,29.73,NW,315,2.9,2.9,80,0.00,,,0.53,WUHU216HW,2013-08-28 16:34:00,
2013-08-28 18:39:00,66.9,60.6,29.73,NW,315,0.0,2.9,80,0.00,,,0.53,WUHU216HW,2013-08-28 16:39:00,
2013-08-28 18:44:00,66.7,60.4,29.73,North,0,0.0,4.2,80,0.00,,,0.53,WUHU216HW,2013-08-28 16:44:00,
2013-08-28 18:49:00,66.7,60.4,29.73,NW,315,0.0,4.2,80,0.00,,,0.53,WUHU216HW,2013-08-28 16:49:00,
2013-08-28 18:54:00,66.3,60.0,29.73,NNW,338,3.1,3.1,80,0.00,,,0.53,WUHU216HW,2013-08-28 16:54:00,
2013-08-28 18:59:00,66.0,60.2,29.73,NNW,338,2.4,3.1,81,0.00,,,0.53,WUHU216HW,2013-08-28 16:59:00,
2013-08-28 19:04:00,66.0,60.0,29.73,NNW,338,0.8,3.8,81,0.00,,,0.53,WUHU216HW,2013-08-28 17:04:00,
2013-08-28 19:09:00,66.0,60.3,29.73,West,270,1.3,6.2,82,0.00,,,0.53,WUHU216HW,2013-08-28 17:09:00,
2013-08-28 19:14:00,65.8,60.1,29.73,NNW,338,3.5,6.2,82,0.00,,,0.53,WUHU216HW,2013-08-28 17:14:00,
2013-08-28 19:19:00,65.4,59.8,29.73,NNW,338,2.4,3.8,82,0.00,,,0.53,WUHU216HW,2013-08-28 17:19:00,
2013-08-28 19:24:00,65.1,59.4,29.73,NNW,338,0.0,3.8,82,0.00,,,0.53,WUHU216HW,2013-08-28 17:24:00,
2013-08-28 19:29:00,64.5,59.2,29.73,WNW,293,0.0,0.0,83,0.00,,,0.53,WUHU216HW,2013-08-28 17:29:00,
2013-08-28 19:34:00,64.2,58.9,29.73,WNW,293,0.0,0.0,83,0.00,,,0.53,WUHU216HW,2013-08-28 17:34:00,
2013-08-28 19:39:00,63.6,58.4,29.73,NW,315,0.0,0.0,83,0.00,,,0.53,WUHU216HW,2013-08-28 17:39:00,
2013-08-28 19:44:00,63.1,58.2,29.73,WNW,293,0.0,0.0,84,0.00,,,0.53,WUHU216HW,2013-08-28 17:44:00,
2013-08-28 19:49:00,62.6,57.6,29.74,West,270,0.0,0.0,84,0.00,,,0.53,WUHU216HW,2013-08-28 17:49:00,
2013-08-28 19:54:00,62.2,57.6,29.75,North,0,0.0,0.0,85,0.00,,,0.53,WUHU216HW,2013-08-28 17:54:00,
2013-08-28 19:59:00,62.0,57.3,29.76,North,0,0.0,0.0,85,0.00,,,0.53,WUHU216HW,2013-08-28 17:59:00,
2013-08-28 20:04:00,61.7,57.3,29.77,WNW,293,0.0,0.0,85,0.00,,,0.53,WUHU216HW,2013-08-28 18:04:00,
2013-08-28 20:09:00,61.5,57.3,29.78,NW,315,0.0,0.0,86,0.00,,,0.53,WUHU216HW,2013-08-28 18:09:00,
2013-08-28 20:14:00,61.5,57.3,29.78,WNW,293,0.0,3.1,86,0.00,,,0.53,WUHU216HW,2013-08-28 18:14:00,
2013-08-28 20:19:00,61.5,57.3,29.79,NNE,23,0.0,3.1,86,0.00,,,0.53,WUHU216HW,2013-08-28 18:19:00,
2013-08-28 20:24:00,61.3,57.1,29.81,West,270,0.0,0.0,86,0.00,,,0.53,WUHU216HW,2013-08-28 18:24:00,
2013-08-28 20:29:00,61.1,57.2,29.81,West,270,0.0,0.0,87,0.00,,,0.53,WUHU216HW,2013-08-28 18:29:00,
2013-08-28 20:34:00,61.3,57.4,29.81,NW,315,2.4,2.4,87,0.00,,,0.53,WUHU216HW,2013-08-28 18:34:00,
2013-08-28 20:39:00,61.3,57.4,29.81,WNW,293,0.0,2.4,87,0.00,,,0.53,WUHU216HW,2013-08-28 18:39:00,
2013-08-28 20:45:00,61.3,57.7,29.81,WNW,293,1.7,1.7,88,0.00,,,0.53,WUHU216HW,2013-08-28 18:45:00,
2013-08-28 20:50:00,61.5,57.9,29.81,NW,315,6.2,6.4,88,0.00,,,0.53,WUHU216HW,2013-08-28 18:50:00,
2013-08-28 20:55:00,61.7,58.1,29.81,North,0,0.0,6.4,88,0.00,,,0.53,WUHU216HW,2013-08-28 18:55:00,
2013-08-28 21:00:00,61.8,58.3,29.82,NE,45,0.0,6.2,88,0.00,,,0.53,WUHU216HW,2013-08-28 19:00:00,
2013-08-28 21:05:00,61.7,58.1,29.81,SE,135,0.0,0.0,88,0.00,,,0.53,WUHU216HW,2013-08-28 19:05:00,
2013-08-28 21:10:00,61.5,57.9,29.81,WNW,293,0.0,0.0,88,0.00,,,0.53,WUHU216HW,2013-08-28 19:10:00,
2013-08-28 21:15:00,61.5,57.9,29.82,West,270,0.0,0.0,88,0.00,,,0.53,WUHU216HW,2013-08-28 19:15:00,
2013-08-28 21:20:00,61.8,58.3,29.82,NNW,338,0.0,0.0,88,0.00,,,0.53,WUHU216HW,2013-08-28 19:20:00,
2013-08-28 21:25:00,61.8,58.3,29.82,NE,45,0.0,0.0,88,0.00,,,0.53,WUHU216HW,2013-08-28 19:25:00,
2013-08-28 21:30:00,62.0,58.4,29.82,NW,315,0.0,0.0,88,0.00,,,0.53,WUHU216HW,2013-08-28 19:30:00,
2013-08-28 21:36:00,62.0,58.4,29.81,WNW,293,3.1,3.1,88,0.00,,,0.53,WUHU216HW,2013-08-28 19:36:00,
2013-08-28 21:41:00,62.0,58.4,29.81,NNW,338,0.0,3.1,88,0.00,,,0.53,WUHU216HW,2013-08-28 19:41:00,
2013-08-28 21:50:00,61.8,58.3,29.79,NW,315,1.5,1.5,88,0.00,,,0.53,WUHU216HW,2013-08-28 19:50:00,
2013-08-28 21:55:00,61.7,58.1,29.79,West,270,0.0,1.5,88,0.00,,,0.53,WUHU216HW,2013-08-28 19:55:00,
2013-08-28 22:00:00,61.8,58.3,29.78,West,270,0.0,1.5,88,0.00,,,0.53,WUHU216HW,2013-08-28 20:00:00,
2013-08-28 22:05:00,61.8,58.3,29.78,WNW,293,0.0,0.8,88,0.00,,,0.53,WUHU216HW,2013-08-28 20:05:00,
2013-08-28 22:10:00,61.8,58.3,29.78,WNW,293,0.6,0.8,88,0.00,,,0.53,WUHU216HW,2013-08-28 20:10:00,
2013-08-28 22:15:00,62.0,58.4,29.78,NW,315,4.4,4.4,88,0.00,,,0.53,WUHU216HW,2013-08-28 20:15:00,
2013-08-28 22:20:00,62.2,58.6,29.78,NW,315,0.0,4.4,88,0.00,,,0.53,WUHU216HW,2013-08-28 20:20:00,
2013-08-28 22:27:00,62.2,58.6,29.78,NW,315,2.6,3.5,88,0.00,,,0.53,WUHU216HW,2013-08-28 20:27:00,
2013-08-28 22:32:00,62.4,58.8,29.77,WNW,293,2.4,4.4,88,0.00,,,0.53,WUHU216HW,2013-08-28 20:32:00,
2013-08-28 22:41:00,62.6,59.0,29.78,NNW,338,1.5,3.1,88,0.00,,,0.53,WUHU216HW,2013-08-28 20:41:00,
2013-08-28 22:46:00,62.6,59.0,29.78,North,0,0.0,2.0,88,0.00,,,0.53,WUHU216HW,2013-08-28 20:46:00,
2013-08-28 22:51:00,62.7,59.2,29.78,NNW,338,1.1,2.0,88,0.00,,,0.53,WUHU216HW,2013-08-28 20:51:00,
2013-08-28 22:56:00,62.7,59.2,29.77,NW,315,1.3,3.5,87,0.00,,,0.53,WUHU216HW,2013-08-28 20:56:00,
2013-08-28 23:01:00,62.7,58.8,29.77,WNW,293,0.8,6.4,87,0.00,,,0.53,WUHU216HW,2013-08-28 21:01:00,
2013-08-28 23:06:00,63.1,59.2,29.77,WNW,293,3.3,6.4,87,0.00,,,0.53,WUHU216HW,2013-08-28 21:06:00,
2013-08-28 23:11:00,63.1,59.2,29.77,North,0,0.0,6.2,87,0.00,,,0.53,WUHU216HW,2013-08-28 21:11:00,
2013-08-28 23:16:00,63.1,58.8,29.78,North,0,2.0,3.3,86,0.00,,,0.53,WUHU216HW,2013-08-28 21:16:00,
2013-08-28 23:21:00,63.1,58.8,29.77,NW,315,0.0,5.1,86,0.00,,,0.53,WUHU216HW,2013-08-28 21:21:00,
2013-08-28 23:26:00,63.1,58.8,29.77,NNW,338,0.0,5.1,86,0.00,,,0.53,WUHU216HW,2013-08-28 21:26:00,
2013-08-28 23:31:00,63.1,58.8,29.78,NNW,338,2.6,3.5,86,0.00,,,0.53,WUHU216HW,2013-08-28 21:31:00,
2013-08-28 23:36:00,63.1,58.8,29.78,NNW,338,3.3,3.8,86,0.00,,,0.53,WUHU216HW,2013-08-28 21:36:00,
2013-08-28 23:41:00,63.1,58.8,29.78,North,0,0.8,3.8,86,0.00,,,0.53,WUHU216HW,2013-08-28 21:41:00,